sat.trackr.live / text

‹ back to catalog

STARLINK-35089

NORAD 65484 · 2025-195AC

PAYLOAD ACTIVE UNKNOWN

§ Identity

Operator
Country
US
Launch date
2025-09-03
Launch site
AFETR
Launch vehicle
Mass (kg)
RCS (m²)

Purposes: comms

External: N2YO · Heavens-Above · Gunter

§ Orbital elements

Epoch: 2026-09-20T21:06:37.770048Z

Period
93.85 min
Inclination
53.1603°
Eccentricity
0.0002021
Mean motion
15.34406334 rev/d
Perigee alt
461.3 km
Apogee alt
464.1 km
Semi-major
6,840.8 km
B*
6.8756e-4
RAAN
67.5817°
Arg perigee
60.4519°
Mean anomaly
299.6685°
Rev number
5,991

§ Raw data

STARLINK-350891 65484U 25195AC  26263.87960382  .00022930  00000+0  68756-3 0  99912 65484  53.1603  67.5817 0002021  60.4519 299.6685 15.34406334 59913

JSON: /api/v1/satellites/65484 · /tle

For live sub-satellite position, see the globe view (requires WebGL).

§ Visibility from observer

Set your observer location to see the next 7 days of passes ≥ 10°. The values pass through the URL so the page stays shareable.

No JS? Fill the form by hand. The geolocation button needs JavaScript.